Location: Banff
(51.1667°N, 115.5667°W)
Time: 08:30:55
(UTC+00:00)

Envisat - Pass Details

Date: 01 December 2022
Orbit: 763 x 765 km, 98.2° (Epoch: 28 January)

Event Time Altitude Azimuth Distance (km) Brightness Sun altitude
Rises 12:13:49 0° 14° (NNE) 3,247 6.4 -28.9°
Reaches altitude 10° 12:16:08 10° 14° (NNE) 2,316 5.6 -28.5°
Enters shadow 12:19:31 43° 11° (N) 1,075 3.7 -28.0°
